• în Republica Moldova
  • Lista ţărilor
  • Pe 7 zile
  • Temperatura apei
  • Hartă satelitară
  • Meteo pe hartă
  • Widget-uri
  • user-avatar
    Intrare

    Meteo pe oră la Brussels

    Astăzi, 19 Octombrie, Vineri

    Timp Temperatura Precipitaţii Vânt Presiune Umiditate
    00:00 +10°C° 0 mm 3 m/s 765 mmHg 91%
    01:00 +10°C° 0 mm 3 m/s 764 mmHg 92%
    02:00 +9°C° 0 mm 3 m/s 764 mmHg 93%
    03:00 +9°C° 0 mm 3 m/s 764 mmHg 94%
    04:00 +9°C° 0 mm 2 m/s 764 mmHg 94%
    05:00 +8°C° 0 mm 2 m/s 764 mmHg 95%
    06:00 +8°C° 0 mm 2 m/s 764 mmHg 95%
    07:00 +9°C° 0 mm 2 m/s 765 mmHg 90%
    08:00 +12°C° 0 mm 2 m/s 765 mmHg 85%
    09:00 +13°C° 0 mm 2 m/s 765 mmHg 80%
    10:00 +15°C° 0 mm 2 m/s 765 mmHg 75%
    11:00 +16°C° 0 mm 2 m/s 765 mmHg 70%
    12:00 +16°C° 0 mm 2 m/s 765 mmHg 68%
    13:00 +17°C° 0 mm 2 m/s 765 mmHg 67%
    14:00 +17°C° 0 mm 2 m/s 764 mmHg 67%
    15:00 +17°C° 0 mm 2 m/s 764 mmHg 66%
    16:00 +15°C° 0 mm 2 m/s 765 mmHg 71%
    17:00 +14°C° 0 mm 2 m/s 765 mmHg 75%
    18:00 +13°C° 0 mm 2 m/s 765 mmHg 80%
    19:00 +12°C° 0 mm 2 m/s 766 mmHg 81%
    20:00 +10°C° 0 mm 2 m/s 766 mmHg 83%
    21:00 +10°C° 0 mm 2 m/s 766 mmHg 84%
    22:00 +9°C° 0 mm 2 m/s 767 mmHg 86%
    23:00 +9°C° 0 mm 2 m/s 767 mmHg 87%

    Mâine, 20 Octombrie, Sâmbătă

    Timp Temperatura Precipitaţii Vânt Presiune Umiditate
    00:00 +8°C° 0 mm 2 m/s 767 mmHg 89%
    01:00 +8°C° 0 mm 2 m/s 767 mmHg 90%
    02:00 +7°C° 0 mm 2 m/s 768 mmHg 90%
    03:00 +7°C° 0 mm 2 m/s 768 mmHg 91%
    04:00 +8°C° 0 mm 1 m/s 768 mmHg 91%
    05:00 +8°C° 0 mm 1 m/s 768 mmHg 91%
    06:00 +7°C° 0 mm 1 m/s 769 mmHg 91%
    07:00 +9°C° 0 mm 1 m/s 769 mmHg 85%
    08:00 +10°C° 0 mm 1 m/s 769 mmHg 79%
    09:00 +12°C° 0 mm 2 m/s 770 mmHg 72%
    10:00 +13°C° 0 mm 2 m/s 770 mmHg 66%
    11:00 +14°C° 0 mm 2 m/s 770 mmHg 60%
    12:00 +16°C° 0 mm 2 m/s 770 mmHg 54%
    13:00 +16°C° 0 mm 2 m/s 770 mmHg 54%
    14:00 +16°C° 0 mm 2 m/s 769 mmHg 54%
    15:00 +16°C° 0 mm 2 m/s 769 mmHg 54%
    16:00 +14°C° 0 mm 1 m/s 769 mmHg 60%
    17:00 +13°C° 0 mm 1 m/s 769 mmHg 66%
    18:00 +11°C° 0 mm 1 m/s 769 mmHg 72%
    19:00 +11°C° 0 mm 1 m/s 770 mmHg 73%
    20:00 +11°C° 0 mm 1 m/s 770 mmHg 74%
    21:00 +10°C° 0 mm 1 m/s 770 mmHg 76%
    22:00 +10°C° 0 mm 1 m/s 770 mmHg 78%
    23:00 +9°C° 0 mm 1 m/s 770 mmHg 79%

    Poimâine, 21 Octombrie, Duminică

    Timp Temperatura Precipitaţii Vânt Presiune Umiditate
    00:00 +9°C° 0 mm 1 m/s 770 mmHg 81%
    01:00 +9°C° 0 mm 1 m/s 769 mmHg 81%
    02:00 +8°C° 0 mm 1 m/s 769 mmHg 82%
    03:00 +8°C° 0 mm 1 m/s 769 mmHg 82%
    04:00 +8°C° 0 mm 1 m/s 769 mmHg 83%
    05:00 +8°C° 0 mm 1 m/s 769 mmHg 83%
    06:00 +8°C° 0 mm 1 m/s 769 mmHg 83%
    07:00 +9°C° 0 mm 1 m/s 769 mmHg 77%
    08:00 +11°C° 0 mm 1 m/s 768 mmHg 70%
    09:00 +13°C° 0 mm 1 m/s 768 mmHg 64%
    10:00 +14°C° 0 mm 1 m/s 768 mmHg 60%
    11:00 +16°C° 0 mm 1 m/s 768 mmHg 57%
    12:00 +18°C° 0 mm 1 m/s 768 mmHg 53%
    13:00 +18°C° 0 mm 1 m/s 767 mmHg 54%
    14:00 +18°C° 0 mm 1 m/s 767 mmHg 54%
    15:00 +18°C° 0 mm 1 m/s 766 mmHg 55%
    16:00 +16°C° 0 mm 1 m/s 767 mmHg 61%
    17:00 +14°C° 0 mm 1 m/s 767 mmHg 67%
    18:00 +12°C° 0 mm 1 m/s 767 mmHg 73%
    19:00 +12°C° 0 mm 1 m/s 767 mmHg 74%
    20:00 +12°C° 0 mm 1 m/s 767 mmHg 74%
    21:00 +12°C° 0 mm 1 m/s 767 mmHg 75%
    22:00 +12°C° 0 mm 1 m/s 767 mmHg 76%
    23:00 +12°C° 0 mm 1 m/s 767 mmHg 77%

    22 Octombrie, Luni

    Timp Temperatura Precipitaţii Vânt Presiune Umiditate
    00:00 +12°C° 0 mm 1 m/s 767 mmHg 78%
    01:00 +12°C° 0 mm 1 m/s 767 mmHg 79%
    02:00 +12°C° 0 mm 1 m/s 767 mmHg 79%
    03:00 +13°C° 0 mm 1 m/s 767 mmHg 80%
    04:00 +13°C° 0.1 mm 2 m/s 768 mmHg 82%
    05:00 +12°C° 0.1 mm 3 m/s 768 mmHg 83%
    06:00 +12°C° 0.1 mm 4 m/s 769 mmHg 85%
    07:00 +12°C° 0.1 mm 5 m/s 769 mmHg 83%
    08:00 +12°C° 0.1 mm 5 m/s 770 mmHg 81%
    09:00 +11°C° 0.1 mm 6 m/s 770 mmHg 78%
    10:00 +11°C° 0 mm 6 m/s 771 mmHg 72%
    11:00 +13°C° 0 mm 6 m/s 771 mmHg 66%
    12:00 +13°C° 0 mm 6 m/s 771 mmHg 60%
    13:00 +13°C° 0 mm 6 m/s 772 mmHg 59%
    14:00 +13°C° 0 mm 6 m/s 772 mmHg 59%
    15:00 +12°C° 0 mm 5 m/s 772 mmHg 58%
    16:00 +10°C° 0 mm 5 m/s 772 mmHg 61%
    17:00 +10°C° 0 mm 4 m/s 772 mmHg 64%
    18:00 +9°C° 0 mm 3 m/s 773 mmHg 66%
    19:00 +8°C° 0 mm 2 m/s 773 mmHg 68%
    20:00 +8°C° 0 mm 2 m/s 773 mmHg 70%
    21:00 +8°C° 0 mm 1 m/s 773 mmHg 72%
    22:00 +9°C° 0 mm 1 m/s 773 mmHg 72%
    23:00 +8°C° 0 mm 2 m/s 773 mmHg 71%

    23 Octombrie, Marţi

    Timp Temperatura Precipitaţii Vânt Presiune Umiditate
    00:00 +8°C° 0 mm 2 m/s 773 mmHg 71%
    01:00 +8°C° 0 mm 2 m/s 773 mmHg 73%
    02:00 +9°C° 0 mm 2 m/s 772 mmHg 74%
    03:00 +9°C° 0 mm 2 m/s 772 mmHg 75%
    04:00 +9°C° 0 mm 3 m/s 772 mmHg 78%
    05:00 +9°C° 0 mm 3 m/s 771 mmHg 80%
    06:00 +9°C° 0 mm 3 m/s 771 mmHg 83%
    07:00 +10°C° 0 mm 3 m/s 771 mmHg 81%
    08:00 +11°C° 0 mm 4 m/s 771 mmHg 79%
    09:00 +12°C° 0 mm 4 m/s 771 mmHg 77%
    10:00 +12°C° 0 mm 4 m/s 771 mmHg 74%
    11:00 +13°C° 0 mm 5 m/s 770 mmHg 72%
    12:00 +13°C° 0 mm 5 m/s 770 mmHg 69%
    13:00 +13°C° 0 mm 5 m/s 770 mmHg 71%
    14:00 +13°C° 0 mm 5 m/s 769 mmHg 73%
    15:00 +12°C° 0 mm 5 m/s 769 mmHg 75%
    16:00 +12°C° 0 mm 4 m/s 769 mmHg 78%
    17:00 +12°C° 0 mm 4 m/s 769 mmHg 81%
    18:00 +11°C° 0 mm 4 m/s 769 mmHg 84%
    19:00 +12°C° 0 mm 4 m/s 769 mmHg 84%
    20:00 +12°C° 0 mm 4 m/s 769 mmHg 85%
    21:00 +12°C° 0 mm 4 m/s 769 mmHg 85%
    22:00 +12°C° 0 mm 4 m/s 769 mmHg 87%
    23:00 +11°C° 0 mm 4 m/s 769 mmHg 89%

    24 Octombrie, Miercuri

    Timp Temperatura Precipitaţii Vânt Presiune Umiditate
    00:00 +11°C° 0 mm 4 m/s 768 mmHg 91%
    01:00 +11°C° 0 mm 4 m/s 768 mmHg 91%
    02:00 +10°C° 0 mm 4 m/s 768 mmHg 92%
    03:00 +10°C° 0 mm 4 m/s 768 mmHg 93%
    04:00 +10°C° 0 mm 3 m/s 768 mmHg 93%
    05:00 +10°C° 0 mm 3 m/s 768 mmHg 93%
    06:00 +10°C° 0 mm 3 m/s 768 mmHg 93%
    07:00 +11°C° 0 mm 4 m/s 768 mmHg 91%
    08:00 +12°C° 0 mm 4 m/s 768 mmHg 88%
    09:00 +13°C° 0 mm 4 m/s 768 mmHg 85%
    10:00 +14°C° 0 mm 4 m/s 768 mmHg 83%
    11:00 +14°C° 0 mm 4 m/s 768 mmHg 81%
    12:00 +15°C° 0 mm 4 m/s 768 mmHg 79%
    13:00 +15°C° 0 mm 4 m/s 768 mmHg 80%
    14:00 +16°C° 0 mm 3 m/s 768 mmHg 81%
    15:00 +16°C° 0 mm 3 m/s 768 mmHg 81%
    16:00 +14°C° 0 mm 3 m/s 768 mmHg 84%
    17:00 +14°C° 0 mm 3 m/s 768 mmHg 86%
    18:00 +14°C° 0 mm 2 m/s 768 mmHg 88%
    19:00 +14°C° 0 mm 2 m/s 768 mmHg 89%
    20:00 +14°C° 0 mm 2 m/s 768 mmHg 89%
    21:00 +14°C° 0 mm 2 m/s 768 mmHg 90%
    22:00 +13°C° 0 mm 2 m/s 768 mmHg 90%
    23:00 +13°C° 0 mm 2 m/s 768 mmHg 90%
    Arată mai mult